Le nostre stazioni meteo in Italia

Pubblicità
Il mio iltempo24.it
Ferrara, Italia (16138): Temperatura & dewpoint: 10.12.2017 17:00:00 - 16.12.2017 17:00:00 (CET)Ferrara, Italia (16138): velocità del vento: 10.12.2017 17:00:00 - 16.12.2017 17:00:00 (CET)Ferrara, Italia (16138): direzione del vento: 10.12.2017 17:00:00 - 16.12.2017 17:00:00 (CET)Ferrara, Italia (16138): reduced air pressure: 10.12.2017 17:00:00 - 16.12.2017 17:00:00 (CET)Ferrara, Italia (16138): visibility: 10.12.2017 17:00:00 - 16.12.2017 17:00:00 (CET)
Data & Tempo tt [°C] td [°C] ff [km/h] ff [kn] dd ppp [hPa] vv [km]
16.12.2017 17:00:00 5,0 2,0 8 4 NNO - 10
16.12.2017 16:00:00 7,2 2,5 9 5 NNO 1008,5 15
16.12.2017 15:00:00 9,0 4,0 9 5 NNO - 10
16.12.2017 14:00:00 8,0 4,0 13 7 N - 10
16.12.2017 13:00:00 7,6 3,8 9 5 N 1007,5 12
16.12.2017 12:00:00 6,0 3,0 8 4 NNO - 10
16.12.2017 11:00:00 5,0 2,0 8 4 N - 10
16.12.2017 10:00:00 4,4 1,8 9 5 N 1006,3 12
16.12.2017 09:00:00 4,0 2,0 4 2 NNO - 10
16.12.2017 08:00:00 4,0 2,0 5 3 NE - 10
16.12.2017 07:00:00 4,2 1,6 11 6 NE 1003,1 8
16.12.2017 06:00:00 - - - - - - -
16.12.2017 05:00:00 - - - - - - -
16.12.2017 04:00:00 - - - - - - -
16.12.2017 03:00:00 - - - - - - -
16.12.2017 02:00:00 - - - - - - -
16.12.2017 01:00:00 - - - - - - -
16.12.2017 00:00:00 - - - - - - -
15.12.2017 23:00:00 - - - - - - -
15.12.2017 22:00:00 - - - - - - -
15.12.2017 21:00:00 - - - - - - -
15.12.2017 20:00:00 - - - - - - -
15.12.2017 19:00:00 3,4 1,3 8 4 O 998,2 5
15.12.2017 18:00:00 4,0 2,0 9 5 OSO - 5
15.12.2017 17:00:00 4,0 2,0 8 4 OSO - 4,0
15.12.2017 16:00:00 5,0 2,5 11 6 O 998,7 4,0
15.12.2017 15:00:00 7,0 4,0 4 2 ONO - 7
15.12.2017 14:00:00 7,0 4,0 11 6 O - 7
15.12.2017 13:00:00 7,8 5,1 9 5 N 999,3 8
15.12.2017 12:00:00 7,0 5,0 8 4 OSO - 8
15.12.2017 11:00:00 6,0 4,0 0 0 N - 8
15.12.2017 10:00:00 4,4 2,4 4 2 NE 1000,0 8
15.12.2017 09:00:00 4,0 2,0 5 3 NE - 8
15.12.2017 08:00:00 3,0 2,0 8 4 NE - 8
15.12.2017 07:00:00 3,2 1,7 8 4 NE 999,1 10
15.12.2017 06:00:00 - - - - - - -
15.12.2017 05:00:00 - - - - - - -
15.12.2017 04:00:00 - - - - - - -
15.12.2017 03:00:00 - - - - - - -
15.12.2017 02:00:00 - - - - - - -
15.12.2017 01:00:00 - - - - - - -
15.12.2017 00:00:00 - - - - - - -
14.12.2017 23:00:00 - - - - - - -
14.12.2017 22:00:00 - - - - - - -
14.12.2017 21:00:00 - - - - - - -
14.12.2017 20:00:00 - - - - - - -
14.12.2017 19:00:00 2,8 0,7 0 0 N 1005,8 9
14.12.2017 18:00:00 3,0 1,0 0 0 N - 9
14.12.2017 17:00:00 5,0 1,0 0 0 N - 8
14.12.2017 16:00:00 7,2 3,1 4 2 SO 1007,3 8
14.12.2017 15:00:00 8,0 4,0 0 0 N - 4,0
14.12.2017 14:00:00 8,0 4,0 5 3 ONO - 3,5
14.12.2017 13:00:00 6,6 3,9 9 5 OSO 1008,9 3,0
14.12.2017 12:00:00 6,0 4,0 5 3 OSO - 2,5
14.12.2017 11:00:00 5,0 2,0 0 0 N - 1,2
14.12.2017 10:00:00 3,4 2,4 0 0 N 1010,1 0,9
14.12.2017 09:00:00 2,0 1,0 4 2 ONO - 0,3
14.12.2017 08:00:00 1,0 0,0 8 4 O - 0,3
14.12.2017 07:00:00 1,6 0,7 0 0 N 1009,8 2,5
14.12.2017 06:00:00 - - - - - - -
14.12.2017 05:00:00 - - - - - - -
14.12.2017 04:00:00 - - - - - - -
14.12.2017 03:00:00 - - - - - - -
14.12.2017 02:00:00 - - - - - - -
14.12.2017 01:00:00 - - - - - - -
14.12.2017 00:00:00 - - - - - - -
13.12.2017 23:00:00 - - - - - - -
13.12.2017 22:00:00 - - - - - - -
13.12.2017 21:00:00 - - - - - - -
13.12.2017 20:00:00 - - - - - - -
13.12.2017 19:00:00 3,2 1,9 2 1 S 1016,1 0,2
13.12.2017 18:00:00 3,0 2,0 2 1 ESE - 2,5
13.12.2017 17:00:00 5,0 3,0 2 1 ESE - 3,0
13.12.2017 16:00:00 6,8 3,8 4 2 ESE 1016,2 3,0
13.12.2017 15:00:00 8,0 5,0 5 3 ONO - 2,5
13.12.2017 14:00:00 8,0 5,0 9 5 O - 2,0
13.12.2017 13:00:00 6,4 4,1 9 5 N 1017,0 2,0
13.12.2017 12:00:00 4,0 3,0 9 5 O - 1,2
13.12.2017 11:00:00 2,0 1,0 5 3 OSO - 0,5
13.12.2017 10:00:00 1,0 0,3 8 4 OSO 1017,9 0,1
13.12.2017 09:00:00 1,0 0,0 8 4 ONO - 0,1
13.12.2017 08:00:00 1,0 0,0 8 4 O - -
13.12.2017 07:00:00 1,0 0,3 9 5 O 1016,2 0,1
13.12.2017 06:00:00 - - - - - - -
13.12.2017 05:00:00 - - - - - - -
13.12.2017 04:00:00 - - - - - - -
13.12.2017 03:00:00 - - - - - - -
13.12.2017 02:00:00 - - - - - - -
13.12.2017 01:00:00 - - - - - - -
13.12.2017 00:00:00 - - - - - - -
12.12.2017 23:00:00 - - - - - - -
12.12.2017 22:00:00 - - - - - - -
12.12.2017 21:00:00 - - - - - - -
12.12.2017 20:00:00 - - - - - - -
12.12.2017 19:00:00 4,4 2,8 5 3 ONO 1012,2 10
12.12.2017 18:00:00 5,0 3,0 2 1 ONO - 10
12.12.2017 17:00:00 5,0 3,0 2 1 OSO - 10
12.12.2017 16:00:00 6,0 3,8 5 3 N 1010,3 10
12.12.2017 15:00:00 7,0 4,0 4 2 NO - 10
12.12.2017 14:00:00 7,0 4,0 2 1 ONO - 10
12.12.2017 13:00:00 7,8 4,8 4 2 NO 1009,7 10
12.12.2017 12:00:00 7,0 4,0 4 2 N - 10
12.12.2017 11:00:00 6,0 3,0 4 2 NNO - 10
12.12.2017 10:00:00 4,6 2,5 2 1 SO 1008,5 10
12.12.2017 09:00:00 4,0 2,0 9 5 O - 10
12.12.2017 08:00:00 4,0 2,0 8 4 SSO - 10
12.12.2017 07:00:00 5,0 2,7 5 3 SO 1005,1 10
12.12.2017 06:00:00 - - - - - - -
12.12.2017 05:00:00 - - - - - - -
12.12.2017 04:00:00 - - - - - - -
12.12.2017 03:00:00 - - - - - - -
12.12.2017 02:00:00 - - - - - - -
12.12.2017 01:00:00 - - - - - - -
12.12.2017 00:00:00 - - - - - - -
11.12.2017 23:00:00 - - - - - - -
11.12.2017 22:00:00 - - - - - - -
11.12.2017 21:00:00 - - - - - - -
11.12.2017 20:00:00 - - - - - - -
11.12.2017 19:00:00 10,6 8,4 5 3 ESE 997,1 3,0
11.12.2017 18:00:00 8,0 7,0 4 2 SSO - 2,5
11.12.2017 17:00:00 7,0 6,0 4 2 NNE - 2,5
11.12.2017 16:00:00 5,0 4,1 5 3 ENE 997,2 2,0
11.12.2017 15:00:00 4,0 3,0 2 1 N - 2,0
11.12.2017 14:00:00 3,0 3,0 2 1 ENE - 2,2
11.12.2017 13:00:00 2,4 1,8 4 2 SE 999,0 1,8
11.12.2017 12:00:00 2,0 1,0 4 2 ENE - 1,6
11.12.2017 11:00:00 1,0 1,0 8 4 E - 1,0
11.12.2017 10:00:00 0,4 -0,4 2 1 ENE 1000,7 1,2
11.12.2017 09:00:00 0,0 -1,0 4 2 SE - 1,0
11.12.2017 08:00:00 0,0 -1,0 5 3 NO - 1,2
11.12.2017 07:00:00 0,0 -1,0 5 3 O 1001,4 1,5
11.12.2017 06:00:00 - - - - - - -
11.12.2017 05:00:00 - - - - - - -
11.12.2017 04:00:00 - - - - - - -
11.12.2017 03:00:00 - - - - - - -
11.12.2017 02:00:00 - - - - - - -
11.12.2017 01:00:00 - - - - - - -
11.12.2017 00:00:00 - - - - - - -
10.12.2017 23:00:00 - - - - - - -
10.12.2017 22:00:00 - - - - - - -
10.12.2017 21:00:00 - - - - - - -
10.12.2017 20:00:00 - - - - - - -
10.12.2017 19:00:00 0,2 -2,8 15 8 NNE 1006,0 12
10.12.2017 18:00:00 1,0 -3,0 13 7 NE - 10
10.12.2017 17:00:00 1,0 -3,0 11 6 NNE - 10

tt = Temperatura
td = dewpoint
ff = velocità del vento
dd = direzione del vento
ppp = reduced air pressure
vv = visibility

Stazioni seguenti

WeatherPro
AMSI
MeteoEarth